PBO Station Position Time Series. Reference Frame : NAM14
Format Version,1.1.0
4-character ID,P355
Station name,BorahPeak_ID2008
Begin Date, 2008-06-12
End Date, 2019-10-07
Release Date, 2019-10-08
Reference position, 44.2179210547 North Latitude, -113.7220876218 East Longitude, 2329.22065 meters elevation,
Date, North (mm), East (mm), Vertical (mm), North Std. Deviation (mm), East Std. Deviation (mm),              Vertical Std. Deviation (mm), Quality,
2008-06-12,0.00, 0.00, 0.00, 2.19, 1.57, 7.05, repro,
2008-06-13,-2.00, 2.02, -0.77, 2.16, 1.54, 6.92, repro,
2008-06-14,-6.08, -3.07, -11.65, 2.23, 1.59, 7.14, repro,
2008-06-15,-0.76, -0.47, -5.94, 2.23, 1.58, 7.14, repro,
2008-06-16,-2.30, -0.56, -3.30, 2.16, 1.54, 6.91, repro,
2008-06-17,-0.01, 1.18, -3.78, 2.20, 1.55, 7.02, repro,
2008-06-18,-0.90, 0.80, -3.75, 2.19, 1.55, 7.02, repro,
2008-06-19,2.73, 0.51, -9.97, 2.20, 1.60, 7.17, repro,
2008-06-20,1.04, 1.02, -13.14, 2.19, 1.56, 7.01, repro,
2008-06-21,1.53, 0.65, -8.56, 2.17, 1.56, 7.01, repro,
2008-06-22,-5.75, -7.33, -2.83, 2.19, 1.56, 7.01, repro,
2008-06-23,-2.47, 0.03, 4.83, 2.19, 1.55, 6.92, repro,
2008-06-24,-2.62, -2.04, -1.13, 2.17, 1.54, 6.91, repro,
2008-06-25,-3.36, 0.39, 5.27, 2.16, 1.54, 6.89, repro,
2008-06-26,-1.29, -0.25, 8.88, 2.20, 1.59, 7.09, repro,
2008-06-27,0.89, 0.81, 2.64, 2.15, 1.55, 6.88, repro,
2008-06-28,-0.66, 2.15, -2.80, 2.22, 1.60, 7.04, repro,
2008-06-29,-0.67, 3.90, -10.76, 2.23, 1.60, 7.08, repro,
2008-06-30,-0.61, 0.84, -7.10, 2.15, 1.54, 6.86, repro,
2008-07-01,-0.06, 1.36, -3.42, 2.24, 1.57, 7.10, repro,
2008-07-02,1.99, 1.45, -3.35, 2.17, 1.55, 6.96, repro,
2008-07-03,0.62, 1.15, -2.25, 2.18, 1.55, 6.95, repro,
2008-07-04,-0.27, -0.47, -0.27, 2.20, 1.55, 7.03, repro,
2008-07-05,-1.14, -3.26, 1.18, 2.23, 1.57, 7.10, repro,
2008-07-06,-0.35, 1.60, -0.59, 2.17, 1.54, 6.90, repro,
2008-07-07,0.02, 1.27, 5.24, 2.21, 1.61, 7.12, repro,
2008-07-08,0.42, 1.57, 3.99, 2.17, 1.54, 6.92, repro,
2008-07-09,2.54, 0.40, 2.79, 2.18, 1.54, 6.98, repro,
2008-07-10,-3.90, 0.01, -0.55, 2.24, 1.58, 7.11, repro,
2008-07-11,-2.81, 1.89, -2.02, 2.24, 1.58, 7.09, repro,
2008-07-12,1.48, 1.55, 0.11, 2.16, 1.54, 6.91, repro,
2008-07-13,0.62, 2.26, 5.17, 2.23, 1.62, 7.15, repro,
2008-07-14,-0.84, 0.71, 0.81, 2.20, 1.56, 7.03, repro,
2008-07-15,-0.78, 1.21, 2.40, 2.18, 1.55, 6.98, repro,
2008-07-16,-1.71, -3.68, 5.00, 2.18, 1.56, 7.04, repro,
2008-07-17,-1.72, -3.07, 3.34, 2.15, 1.54, 6.92, repro,
2008-07-18,-1.94, 2.57, 7.91, 2.31, 1.60, 7.27, repro,
2008-07-19,-0.15, 1.83, 8.14, 2.26, 1.57, 7.16, repro,
2008-07-20,-0.12, 1.57, 9.83, 2.18, 1.55, 6.96, repro,
2008-07-21,0.58, 1.52, 10.25, 2.18, 1.56, 6.96, repro,
2008-07-22,2.52, 0.41, 7.75, 2.28, 1.70, 7.58, repro,
2008-07-23,0.09, 2.39, 1.06, 2.21, 1.56, 6.97, repro,
2008-07-24,-4.71, -2.20, -2.12, 2.17, 1.54, 6.92, repro,
2008-07-25,0.30, -1.33, 4.54, 2.17, 1.54, 6.91, repro,
2008-07-26,-0.51, 1.01, 7.12, 2.18, 1.55, 6.97, repro,
2008-07-27,-2.90, -4.74, 4.15, 2.16, 1.54, 6.96, repro,
2008-07-28,-3.46, -3.48, 5.03, 2.23, 1.56, 7.03, repro,
2008-07-29,0.91, 0.55, 3.55, 2.21, 1.56, 7.05, repro,
2008-07-30,-5.50, -6.03, 8.22, 2.32, 1.59, 7.33, repro,
2008-07-31,-0.39, -0.37, 12.18, 2.16, 1.54, 6.93, repro,
2008-08-01,-0.79, 0.49, 5.01, 2.21, 1.61, 7.16, repro,
2008-08-02,0.85, 1.28, 4.95, 2.19, 1.59, 7.03, repro,
2008-08-03,-2.61, -4.40, 7.42, 2.21, 1.58, 7.12, repro,
2008-08-04,-3.78, -2.36, 10.88, 2.17, 1.54, 6.93, repro,
2008-08-05,-0.82, 1.59, 8.97, 2.17, 1.54, 6.91, repro,
2008-08-06,0.20, 1.68, 8.98, 2.21, 1.56, 7.04, repro,
2008-08-07,0.69, 1.73, 0.07, 2.30, 1.67, 7.35, repro,
2008-08-08,-0.96, 1.66, 2.86, 2.37, 1.70, 7.57, repro,
2008-08-09,-0.33, -0.89, 4.87, 2.25, 1.59, 7.17, repro,
2008-08-10,-3.10, -4.19, 0.92, 2.21, 1.56, 7.01, repro,
2008-08-11,-0.19, 0.55, 3.22, 2.21, 1.56, 6.99, repro,
2008-08-12,-0.20, 2.77, 11.83, 2.22, 1.57, 7.05, repro,
2008-08-13,-0.97, 1.56, 9.42, 2.18, 1.54, 6.88, repro,
2008-08-14,-0.87, 1.29, 5.61, 2.20, 1.56, 6.98, repro,
2008-08-15,-2.39, 1.47, 4.46, 2.22, 1.57, 7.07, repro,
2008-08-16,-1.44, 2.81, 7.00, 2.23, 1.57, 7.06, repro,
2008-08-17,-1.49, 1.62, 6.38, 2.25, 1.57, 7.12, repro,
2008-08-18,0.37, 1.96, 12.10, 2.20, 1.55, 6.94, repro,
2008-08-19,0.13, -1.69, 6.66, 2.21, 1.57, 6.99, repro,
2008-08-20,-2.08, -2.31, 7.17, 2.21, 1.57, 7.00, repro,
2008-08-21,-6.96, -3.60, 2.56, 2.24, 1.58, 7.08, repro,
2008-08-22,-0.36, 0.89, 7.73, 2.23, 1.56, 7.02, repro,
2008-08-23,-0.51, 1.13, 11.95, 2.21, 1.55, 6.93, repro,
2008-08-24,-0.96, 0.40, 4.66, 2.21, 1.58, 7.04, repro,
2008-08-25,-0.22, -1.85, 6.88, 2.21, 1.56, 6.97, repro,
2008-08-26,-0.91, 2.25, 11.06, 2.21, 1.56, 6.98, repro,
2008-08-27,-0.76, -4.20, 6.75, 2.24, 1.58, 7.11, repro,
2008-08-28,0.17, 1.51, 17.46, 2.36, 1.64, 7.39, repro,
2008-08-29,-1.04, 1.77, 7.25, 2.23, 1.57, 7.03, repro,
2008-08-30,-1.67, -4.31, 14.59, 2.24, 1.59, 7.12, repro,
2008-08-31,0.24, 0.61, 13.97, 2.22, 1.58, 7.08, repro,
2008-09-01,0.90, 0.10, 9.51, 2.22, 1.58, 7.05, repro,
2008-09-02,-0.32, 1.76, 4.53, 2.23, 1.58, 7.05, repro,
2008-09-03,0.07, 1.17, 3.92, 2.22, 1.58, 7.02, repro,
2008-09-04,0.20, 2.81, 9.09, 2.38, 1.67, 7.55, repro,
2008-09-05,0.56, 1.36, 4.43, 2.36, 1.66, 7.49, repro,
2008-09-06,0.41, 1.05, 7.02, 2.22, 1.57, 7.06, repro,
2008-09-07,1.98, 1.83, 3.59, 2.26, 1.62, 7.22, repro,
2008-09-08,0.95, 1.58, 5.02, 2.26, 1.61, 7.17, repro,
2008-09-09,0.42, -0.10, 3.99, 2.28, 1.57, 7.09, repro,
2008-09-10,-1.56, -1.95, 8.05, 2.29, 1.63, 7.27, repro,
2008-09-11,1.59, 1.67, 3.66, 2.39, 1.71, 7.67, repro,
2008-09-12,1.80, 1.75, 8.84, 2.41, 1.71, 7.68, repro,
2008-09-13,1.01, 0.81, 9.06, 2.25, 1.62, 7.18, repro,
2008-09-14,0.73, 1.89, 6.13, 2.26, 1.61, 7.15, repro,
2008-09-15,-0.21, 2.95, 4.83, 2.27, 1.62, 7.24, repro,
2008-09-16,1.04, 2.28, 3.02, 2.32, 1.65, 7.34, repro,
2008-09-17,0.49, 2.74, 4.27, 2.32, 1.62, 7.30, repro,
2008-09-18,0.07, 1.41, 5.62, 2.25, 1.59, 7.13, repro,
2008-09-19,0.51, 2.32, 3.93, 2.18, 1.53, 6.85, repro,
2008-09-20,2.12, 1.21, 9.43, 2.25, 1.60, 7.13, repro,
2008-09-21,0.37, -0.87, -4.42, 2.23, 1.57, 7.06, repro,
2008-09-22,1.43, 2.17, 2.67, 2.21, 1.56, 7.00, repro,
2008-09-23,-2.47, 1.32, 6.94, 2.20, 1.56, 6.94, repro,
2008-09-24,-0.05, 1.33, 2.22, 2.29, 1.65, 7.30, repro,
2008-09-25,0.88, 1.44, 2.42, 2.20, 1.55, 6.96, repro,
2008-09-26,-0.45, 1.56, 0.83, 2.22, 1.57, 7.08, repro,
2008-09-27,-0.48, -0.25, -3.60, 2.31, 1.65, 7.34, repro,
2008-09-28,0.73, 1.48, 2.27, 2.21, 1.56, 7.01, repro,
2008-09-29,1.40, 2.55, 3.27, 2.30, 1.65, 7.29, repro,
2008-09-30,0.56, 2.14, 2.28, 2.19, 1.55, 6.93, repro,
2008-10-01,0.77, 1.76, 2.97, 2.22, 1.56, 7.03, repro,
2008-10-02,-0.34, 2.30, 7.35, 2.30, 1.64, 7.27, repro,
2008-10-03,0.96, 1.84, 10.08, 2.30, 1.64, 7.29, repro,
2008-10-04,-0.23, 2.64, 11.54, 2.21, 1.55, 6.91, repro,
2008-10-05,1.56, 0.91, 12.11, 2.18, 1.54, 6.86, repro,
2008-10-06,-0.22, 1.01, 8.42, 2.23, 1.56, 7.03, repro,
2008-10-07,-0.60, -0.22, 0.47, 2.27, 1.57, 7.14, repro,
2008-10-08,-0.72, 0.75, -5.84, 2.30, 1.66, 7.26, repro,
2008-10-09,1.10, 1.41, 3.89, 2.17, 1.54, 6.90, repro,
2008-10-10,0.12, 2.82, 4.50, 2.16, 1.53, 6.81, repro,
2008-10-11,0.83, 2.50, 4.10, 2.16, 1.53, 6.85, repro,
2008-10-12,1.02, 1.71, 3.22, 2.17, 1.54, 6.93, repro,
2008-10-13,-0.59, 1.88, 1.98, 2.17, 1.54, 6.88, repro,
2008-10-14,0.81, 1.77, -2.38, 2.17, 1.53, 6.88, repro,
2008-10-15,0.55, 2.43, 2.88, 2.24, 1.54, 7.02, repro,
2008-10-16,-1.39, 3.61, 6.19, 2.23, 1.54, 6.98, repro,
2008-10-17,-0.24, 3.74, -4.38, 2.18, 1.54, 6.95, repro,
2008-10-18,-1.35, -4.27, -8.69, 2.17, 1.54, 6.95, repro,
2008-10-19,-1.01, -0.65, -3.97, 2.17, 1.54, 6.93, repro,
2008-10-20,-1.18, -1.60, -2.98, 2.16, 1.53, 6.89, repro,
2008-10-21,-1.61, 2.37, -1.61, 2.17, 1.53, 6.85, repro,
2008-10-22,0.25, 2.63, 0.46, 2.16, 1.54, 6.92, repro,
2008-10-23,-0.05, 3.71, 6.50, 2.16, 1.54, 6.90, repro,
2008-10-24,0.13, 0.99, 5.05, 2.17, 1.55, 6.95, repro,
2008-10-25,-1.03, 4.25, 8.46, 2.16, 1.53, 6.87, repro,
2008-10-26,0.11, 0.49, -3.92, 2.16, 1.53, 6.86, repro,
2008-10-27,-0.14, 2.72, -4.71, 2.16, 1.54, 6.87, repro,
2008-10-28,1.17, 1.77, -4.83, 2.27, 1.57, 7.05, repro,
2008-10-29,3.07, 0.54, -5.70, 2.29, 1.60, 7.18, repro,
2008-10-30,-0.10, 2.01, 2.28, 2.17, 1.53, 6.90, repro,
2008-10-31,3.24, -1.41, -12.16, 2.24, 1.60, 7.19, repro,
2008-11-01,-0.45, -1.84, -7.11, 2.18, 1.56, 7.00, repro,
2008-11-02,2.01, 1.08, 4.93, 2.19, 1.59, 7.11, repro,
2008-11-03,0.45, -1.29, -5.30, 2.23, 1.62, 7.16, repro,
2008-11-04,2.13, -2.14, 3.78, 2.25, 1.61, 7.16, repro,
2008-11-05,0.65, 1.05, 5.94, 2.23, 1.60, 7.10, repro,
2008-11-06,0.01, 1.69, -0.84, 2.20, 1.56, 7.03, repro,
2008-11-07,1.00, 2.75, 1.91, 2.25, 1.65, 7.26, repro,
2008-11-08,0.45, 3.77, 5.83, 2.26, 1.66, 7.45, repro,
2008-11-09,0.84, 0.96, 10.24, 2.23, 1.62, 7.28, repro,
2008-11-10,-1.09, 0.54, 11.68, 2.26, 1.63, 7.18, repro,
2008-11-11,0.56, 1.84, 7.57, 2.30, 1.66, 7.59, repro,
2008-11-12,-0.38, 2.69, 10.73, 2.16, 1.54, 6.89, repro,
2008-11-13,-4.17, -3.49, -13.56, 2.21, 1.60, 7.03, repro,
2008-11-14,0.63, 1.29, 7.44, 2.30, 1.67, 7.42, repro,
2008-11-15,0.61, 0.85, -4.38, 2.25, 1.63, 7.20, repro,
2008-11-16,0.29, 0.26, 2.55, 2.27, 1.64, 7.32, repro,
2008-11-17,0.55, 0.92, -0.86, 2.28, 1.69, 7.48, repro,
2008-11-18,-1.26, -2.12, -7.91, 2.46, 1.87, 8.32, repro,
2008-11-19,1.49, -0.01, -3.89, 2.32, 1.66, 7.50, repro,
2008-11-20,2.00, 2.28, -4.65, 2.26, 1.66, 7.33, repro,
2008-11-21,1.47, 1.79, -4.75, 2.45, 1.81, 8.26, repro,
2008-11-22,-3.82, -2.38, 2.53, 2.45, 1.79, 8.11, repro,
2008-11-23,-0.57, 0.57, -0.48, 2.32, 1.70, 7.54, repro,
2008-11-24,0.35, 1.95, -3.03, 2.38, 1.74, 7.72, repro,
2008-11-25,0.24, 2.03, 1.75, 2.29, 1.68, 7.43, repro,
2008-11-26,0.04, 0.88, 1.93, 2.19, 1.56, 6.97, repro,
2008-11-27,0.58, 1.78, 2.74, 2.27, 1.67, 7.44, repro,
2008-11-28,0.17, 0.47, 2.23, 2.26, 1.68, 7.36, repro,
2008-11-29,-1.84, -0.01, 3.45, 2.34, 1.75, 7.81, repro,
2008-11-30,-0.04, 0.74, 2.33, 2.21, 1.62, 7.15, repro,
2008-12-01,-0.77, 0.75, 4.20, 2.17, 1.55, 6.95, repro,
2008-12-02,-1.17, -0.51, 2.59, 2.27, 1.64, 7.26, repro,
2008-12-03,0.61, 1.46, 8.68, 2.24, 1.63, 7.21, repro,
2008-12-04,0.07, 2.39, -0.31, 2.31, 1.80, 7.82, repro,
2008-12-05,0.12, 1.37, -1.12, 2.22, 1.64, 7.20, repro,
2008-12-06,-1.15, 1.00, -3.24, 2.34, 1.79, 7.75, repro,
2008-12-07,-4.42, -1.45, 4.85, 2.34, 1.79, 7.80, repro,
2008-12-08,0.20, -1.68, 7.02, 2.26, 1.67, 7.43, repro,
2008-12-09,1.02, 1.19, -2.88, 2.21, 1.60, 7.08, repro,
2008-12-10,0.80, 1.01, 2.16, 2.18, 1.57, 7.01, repro,
2008-12-11,0.13, 1.31, -1.09, 2.32, 1.67, 7.40, repro,
2008-12-12,-0.58, 0.53, 5.81, 2.33, 1.70, 7.64, repro,
2008-12-13,0.90, -1.64, 4.10, 2.23, 1.61, 7.22, repro,
2008-12-14,1.02, 0.92, 6.59, 2.17, 1.54, 6.91, repro,
2008-12-15,0.36, 1.28, 3.57, 2.16, 1.54, 6.90, repro,
2008-12-16,0.03, 1.16, 5.01, 2.18, 1.57, 7.00, repro,
2008-12-17,0.23, 0.66, 2.82, 2.23, 1.59, 7.12, repro,
2008-12-18,-2.70, -2.66, 1.10, 2.15, 1.53, 6.88, repro,
2008-12-19,-0.28, -1.36, 0.60, 2.21, 1.57, 7.08, repro,
2008-12-20,-0.03, 0.74, -0.36, 2.16, 1.54, 6.90, repro,
2008-12-21,0.09, 0.63, -2.29, 2.15, 1.54, 6.89, repro,
2008-12-22,0.77, 0.74, 2.95, 2.15, 1.54, 6.93, repro,
2008-12-23,1.68, 1.90, 6.65, 2.15, 1.55, 6.94, repro,
2008-12-24,-2.73, -2.17, 3.33, 2.14, 1.54, 6.91, repro,
2008-12-25,0.71, -0.46, 6.18, 2.16, 1.53, 6.93, repro,
2008-12-26,1.36, 0.33, 6.11, 2.16, 1.53, 6.87, repro,
2008-12-27,0.33, 0.92, 1.42, 2.16, 1.53, 6.90, repro,
2008-12-28,-2.00, -3.25, -11.17, 2.15, 1.55, 6.93, repro,
2008-12-29,1.78, -0.80, -15.13, 2.15, 1.54, 6.89, repro,
2008-12-30,0.02, 0.01, -10.62, 2.15, 1.54, 6.93, repro,
2008-12-31,-2.55, -1.90, -11.15, 2.15, 1.53, 6.88, repro,
2009-01-01,-1.88, -2.44, -10.45, 2.16, 1.54, 6.91, repro,
2009-01-02,2.07, 1.85, 2.35, 2.14, 1.54, 6.85, repro,
2009-01-03,0.20, 0.21, 0.45, 2.14, 1.55, 6.91, repro,
2009-01-04,0.64, 0.94, -4.89, 2.15, 1.55, 6.92, repro,
2009-01-05,-0.49, 0.29, 2.21, 2.15, 1.54, 6.89, repro,
2009-01-06,2.71, -0.16, 11.35, 2.16, 1.54, 6.89, repro,
2009-01-07,2.63, 5.07, 5.30, 2.17, 1.56, 6.94, repro,
2009-01-08,-1.83, -4.59, -11.53, 2.21, 1.60, 7.14, repro,
2009-01-09,1.87, 0.51, -7.33, 2.24, 1.61, 7.24, repro,
2009-01-10,2.24, 0.84, -7.30, 2.15, 1.55, 6.96, repro,
2009-01-11,1.79, 1.81, -9.44, 2.17, 1.56, 7.00, repro,
2009-01-12,0.30, 0.95, -10.02, 2.21, 1.58, 7.10, repro,
2009-01-13,-0.24, 1.55, -9.42, 2.20, 1.58, 7.07, repro,
2009-01-14,1.52, 0.63, -10.78, 2.20, 1.58, 7.13, repro,
2009-01-15,1.61, 0.90, -9.99, 2.22, 1.63, 7.33, repro,
2009-01-16,0.90, 0.91, -9.44, 2.19, 1.57, 7.03, repro,
2009-01-17,1.10, 1.08, -10.40, 2.20, 1.58, 7.07, repro,
2009-01-18,0.18, 0.60, -12.35, 2.15, 1.55, 6.89, repro,
2009-01-19,0.45, 0.96, -10.30, 2.21, 1.58, 7.12, repro,
2009-01-20,1.53, 1.71, -6.43, 2.14, 1.56, 6.99, repro,
2009-01-21,1.70, 2.12, -5.13, 2.14, 1.55, 6.91, repro,
2009-01-22,1.73, 0.06, -7.49, 2.15, 1.55, 6.93, repro,
2009-01-23,0.84, 1.36, -8.04, 2.18, 1.56, 7.02, repro,
2009-01-24,0.63, -0.83, -13.22, 2.20, 1.57, 7.08, repro,
2009-01-25,1.34, -0.43, -6.31, 2.21, 1.59, 7.18, repro,
2009-01-26,0.87, 1.95, -4.82, 2.14, 1.54, 6.91, repro,
2009-01-27,0.18, 1.57, -4.53, 2.15, 1.56, 6.95, repro,
2009-01-28,-0.86, -0.00, -6.77, 2.15, 1.55, 6.92, repro,
2009-01-29,0.16, 1.15, -8.21, 2.14, 1.56, 6.98, repro,
2009-01-30,0.26, 1.41, -9.84, 2.15, 1.57, 6.98, repro,
2009-01-31,-0.59, -0.83, -10.59, 2.13, 1.56, 6.95, repro,
2009-02-01,0.48, 1.34, -5.06, 2.15, 1.56, 6.93, repro,
2009-02-02,0.85, 1.54, -9.25, 2.14, 1.55, 6.92, repro,
2009-02-03,0.89, 1.78, -12.30, 2.14, 1.55, 6.92, repro,
2009-02-04,-0.07, 1.91, -10.19, 2.20, 1.59, 7.13, repro,
2009-02-05,-0.07, 2.08, -7.74, 2.16, 1.59, 7.07, repro,
2009-02-06,0.56, 0.45, -2.63, 2.24, 1.63, 7.30, repro,
2009-02-07,1.30, 1.40, -1.82, 2.19, 1.59, 7.14, repro,
2009-02-08,0.31, 1.56, -2.06, 2.15, 1.56, 6.95, repro,
2009-02-09,0.23, 2.73, 4.33, 2.17, 1.60, 7.09, repro,
2009-02-10,1.00, 0.31, 1.20, 2.13, 1.56, 6.92, repro,
2009-02-11,1.56, 1.04, 0.27, 2.21, 1.65, 7.30, repro,
2009-02-12,1.02, 0.88, -1.11, 2.19, 1.61, 7.14, repro,
2009-02-13,-0.07, 0.98, -1.72, 2.18, 1.59, 7.08, repro,
2009-02-14,0.62, 1.20, 0.15, 2.13, 1.55, 6.90, repro,
2009-02-15,-0.58, 1.28, -6.25, 2.17, 1.60, 7.16, repro,
2009-02-16,0.00, 1.10, -1.41, 2.16, 1.61, 7.19, repro,
2009-02-17,0.42, 0.63, 6.07, 2.18, 1.58, 7.04, repro,
2009-02-18,-0.11, 0.78, 1.50, 2.20, 1.62, 7.31, repro,
2009-02-19,-0.12, -0.02, -6.85, 2.23, 1.61, 7.27, repro,
2009-02-20,0.40, 0.10, -6.89, 2.18, 1.59, 7.15, repro,
2009-02-21,0.11, 1.16, -8.53, 2.24, 1.62, 7.34, repro,
2009-02-22,0.07, 0.45, -17.42, 2.16, 1.59, 7.14, repro,
2009-02-23,-3.51, -3.94, -12.52, 2.15, 1.59, 7.07, repro,
2009-02-24,-0.68, -1.19, -8.54, 2.22, 1.66, 7.46, repro,
2009-02-25,-0.28, -1.01, -19.10, 107.00, 146.02, 307.49, repro,
2009-02-26,-0.39, -1.68, -8.33, 2.24, 1.67, 7.53, repro,
2009-02-27,1.92, 0.30, -7.79, 2.42, 1.91, 8.50, repro,
2009-02-28,1.48, 0.80, -9.21, 2.23, 1.70, 7.60, repro,
2009-03-01,-1.76, -2.92, -13.32, 2.23, 1.69, 7.58, repro,
2009-03-02,1.82, -1.32, -15.80, 2.20, 1.64, 7.38, repro,
2009-03-03,-0.70, 1.94, -5.28, 2.25, 1.67, 7.57, repro,
2009-03-04,0.68, 0.07, 3.05, 2.14, 1.56, 6.98, repro,
2009-03-05,-0.70, -1.73, -3.23, 2.20, 1.64, 7.38, repro,
2009-03-06,-0.66, -2.40, 4.18, 2.26, 1.77, 7.75, repro,
2009-03-07,0.60, -0.33, 3.36, 2.21, 1.66, 7.42, repro,
2009-03-08,-2.30, -0.83, -3.02, 2.17, 1.59, 7.18, repro,
2009-03-09,0.51, 0.08, -0.84, 2.32, 1.74, 7.86, repro,
2009-03-10,1.46, 1.34, -2.87, 2.17, 1.61, 7.24, repro,
2009-03-11,1.39, 1.05, -4.29, 2.17, 1.61, 7.20, repro,
2009-03-12,0.81, 0.98, -6.20, 2.17, 1.61, 7.29, repro,
2009-03-13,0.22, 1.06, -7.46, 2.26, 1.67, 7.55, repro,
2009-03-14,-0.48, -0.65, 1.08, 2.22, 1.65, 7.44, repro,
2009-03-15,-2.73, -4.25, -3.15, 2.15, 1.56, 7.00, repro,
2009-03-16,2.04, -0.56, 1.34, 2.21, 1.65, 7.42, repro,
2009-03-17,-1.21, -0.19, -6.16, 2.15, 1.56, 7.03, repro,
2009-03-18,-0.42, 0.12, -6.24, 2.14, 1.57, 7.09, repro,
2009-03-19,-0.74, 1.78, -7.42, 2.15, 1.57, 7.03, repro,
2009-03-20,1.14, 0.47, -6.62, 2.16, 1.57, 7.05, repro,
2009-03-21,-0.83, -2.87, -3.96, 2.15, 1.56, 6.99, repro,
2009-03-22,-1.37, -1.31, -3.64, 2.14, 1.56, 6.99, repro,
2009-03-23,2.55, 0.22, -3.87, 2.14, 1.56, 7.03, repro,
2009-03-24,1.85, 1.36, -2.12, 2.15, 1.57, 7.07, repro,
2009-03-25,0.39, 0.48, -1.63, 2.15, 1.57, 7.01, repro,
2009-03-26,1.96, -0.25, -1.10, 2.15, 1.56, 6.98, repro,
2009-03-27,0.02, 1.09, 0.21, 2.19, 1.58, 7.08, repro,
2009-03-28,0.62, 0.64, -1.66, 2.20, 1.59, 7.16, repro,
2009-03-29,-0.08, -0.72, 1.43, 2.19, 1.57, 7.08, repro,
2009-03-30,0.73, 0.33, -1.18, 2.18, 1.57, 7.02, repro,
2009-03-31,0.64, -0.57, -2.32, 2.19, 1.57, 7.01, repro,
2009-04-01,0.62, -0.76, 0.20, 2.20, 1.57, 7.05, repro,
2009-04-02,-0.34, -2.14, 1.68, 2.24, 1.62, 7.31, repro,
2009-04-03,1.44, -0.04, 3.54, 2.25, 1.62, 7.31, repro,
2009-04-04,1.43, 1.38, -0.97, 2.18, 1.58, 7.08, repro,
2009-04-05,0.77, 0.91, -9.96, 2.19, 1.58, 7.07, repro,
2009-04-06,-0.19, 0.67, -9.51, 2.21, 1.56, 7.08, repro,
2009-04-07,1.07, 0.63, -2.44, 2.20, 1.57, 7.07, repro,
2009-04-08,1.74, 1.90, 5.22, 2.20, 1.58, 7.07, repro,
2009-04-09,-0.42, 0.17, 1.86, 2.23, 1.60, 7.19, repro,
2009-04-10,0.10, 1.33, -1.10, 2.18, 1.56, 7.00, repro,
2009-04-11,-0.27, 0.96, 1.53, 2.24, 1.60, 7.23, repro,
2009-04-12,0.14, 0.52, -11.30, 2.21, 1.57, 7.08, repro,
2009-04-13,0.47, -1.79, -12.05, 2.24, 1.60, 7.17, repro,
2009-04-14,1.27, 0.10, -9.18, 2.20, 1.56, 6.99, repro,
2009-04-15,0.41, 1.05, 1.78, 2.22, 1.58, 7.09, repro,
2009-04-16,1.14, 0.47, -7.63, 2.23, 1.59, 7.14, repro,
2009-04-17,0.33, 0.91, -9.64, 2.19, 1.56, 6.98, repro,
2009-04-18,1.35, 0.39, -10.83, 2.21, 1.55, 6.98, repro,
2009-04-19,-0.49, 0.43, -5.99, 2.20, 1.55, 6.94, repro,
2009-04-20,-0.08, 0.36, -10.09, 2.21, 1.56, 6.99, repro,
2009-04-21,0.64, 0.18, -11.28, 2.25, 1.60, 7.15, repro,
2009-04-22,-1.35, -2.49, -10.50, 2.20, 1.56, 6.95, repro,
2009-04-23,-0.98, 0.21, -1.41, 2.27, 1.59, 7.17, repro,
2009-04-24,0.28, 0.30, -3.80, 2.31, 1.63, 7.27, repro,
2009-04-25,0.46, 0.97, -3.19, 2.21, 1.56, 6.99, repro,
2009-04-26,0.37, 0.19, -7.20, 2.20, 1.56, 6.96, repro,
2009-04-27,-0.45, -0.22, -6.50, 2.24, 1.60, 7.15, repro,
2009-04-28,0.10, -0.33, -6.54, 2.24, 1.57, 7.03, repro,
2009-04-29,0.41, 0.39, -5.02, 2.31, 1.64, 7.26, repro,
2009-04-30,-0.67, -0.56, -8.76, 2.32, 1.65, 7.28, repro,
2009-05-01,-0.43, 1.01, -8.45, 2.23, 1.59, 7.05, repro,
2009-05-02,-0.25, 0.15, -4.41, 2.22, 1.57, 7.01, repro,
2009-05-03,-1.01, -0.70, -5.91, 2.22, 1.57, 6.99, repro,
2009-05-04,-2.59, 0.01, 1.67, 2.24, 1.57, 7.06, repro,
2009-05-05,-1.60, -2.21, -18.85, 2.24, 1.56, 7.03, repro,
2009-05-06,-3.14, -2.03, -13.84, 2.21, 1.56, 6.98, repro,
2009-05-07,0.57, -0.09, -23.33, 2.21, 1.57, 7.05, repro,
2009-05-08,0.39, -0.09, -12.73, 2.19, 1.57, 7.02, repro,
2009-05-09,0.67, 0.60, -6.67, 2.22, 1.57, 7.06, repro,
2009-05-10,0.56, 0.57, -8.27, 2.21, 1.56, 7.00, repro,
2009-05-11,0.72, -1.46, -10.06, 2.19, 1.55, 6.97, repro,
2009-05-12,-3.25, -1.70, 1.81, 2.27, 1.66, 7.23, repro,
2009-05-13,-0.28, -0.18, -2.08, 2.23, 1.60, 7.14, repro,
2009-05-14,-6.16, -7.67, -10.14, 2.20, 1.56, 7.02, repro,
2009-05-15,-0.06, 1.24, -5.30, 2.19, 1.56, 6.98, repro,
2009-05-16,-0.13, 0.65, -5.94, 2.21, 1.56, 7.05, repro,
2009-05-17,0.14, 0.90, -8.05, 2.20, 1.56, 7.04, repro,
2009-05-18,-0.59, -3.85, -16.76, 2.19, 1.57, 7.01, repro,
2009-05-19,-1.46, -0.97, -13.51, 2.21, 1.60, 7.20, repro,
2009-05-20,-4.74, -3.33, -2.09, 2.20, 1.56, 7.06, repro,
2009-05-21,-0.29, -0.03, -5.03, 2.20, 1.58, 7.08, repro,
2009-05-22,0.37, 0.81, -7.15, 2.20, 1.57, 7.07, repro,
2009-05-23,0.10, 1.26, -13.05, 2.20, 1.56, 7.03, repro,
2009-05-24,1.95, 1.69, -5.63, 2.19, 1.56, 7.04, repro,
2009-05-25,0.66, 1.50, -8.68, 2.18, 1.57, 7.02, repro,
2009-05-26,0.55, 0.72, -1.91, 2.19, 1.56, 6.99, repro,
2009-05-27,0.35, 1.22, -2.74, 2.20, 1.57, 7.06, repro,
2009-05-28,1.15, 0.77, -4.13, 2.19, 1.56, 7.00, repro,
2009-05-29,0.29, 0.83, 0.41, 2.19, 1.56, 6.99, repro,
2009-05-30,2.05, 2.12, -0.05, 2.17, 1.57, 7.02, repro,
2009-05-31,0.02, 0.48, -0.32, 2.18, 1.56, 7.00, repro,
2009-06-01,0.26, 1.78, -3.17, 2.18, 1.56, 7.01, repro,
2009-06-02,0.12, 1.21, -6.45, 2.19, 1.57, 7.09, repro,
2009-06-03,-0.33, 1.18, -6.19, 2.18, 1.56, 7.02, repro,
2009-06-04,-0.43, 2.14, -7.40, 2.20, 1.56, 7.07, repro,
2009-06-05,1.22, 1.73, -6.09, 2.19, 1.57, 7.04, repro,
2009-06-06,0.01, 1.29, 1.62, 2.22, 1.60, 7.18, repro,
2009-06-07,0.62, 0.96, -3.43, 2.19, 1.57, 7.06, repro,
2009-06-08,-0.68, -0.67, -3.07, 2.19, 1.58, 7.07, repro,
2009-06-09,3.23, 1.90, 3.36, 2.21, 1.57, 7.06, repro,
2009-06-10,0.41, 2.40, -7.20, 2.19, 1.57, 7.06, repro,
2009-06-11,0.07, 1.78, -8.51, 2.17, 1.56, 6.97, repro,
2009-06-12,-0.20, 2.21, -7.81, 2.17, 1.56, 6.96, repro,
2009-06-13,0.46, 1.92, -5.46, 2.20, 1.62, 7.10, repro,
2009-06-14,0.23, 2.16, -0.33, 2.22, 1.62, 7.11, repro,
2009-06-15,-2.36, 2.65, -6.30, 2.24, 1.62, 7.17, repro,
2009-06-16,0.14, 2.77, -2.27, 2.17, 1.56, 6.98, repro,
2009-06-17,1.47, 1.84, -0.27, 2.21, 1.58, 7.09, repro,
2009-06-18,1.07, 2.04, 0.40, 2.21, 1.61, 7.11, repro,
2009-06-19,-0.29, 0.48, -2.89, 2.21, 1.62, 7.12, repro,
2009-06-20,0.39, 0.55, -4.24, 2.19, 1.57, 7.02, repro,
2009-06-21,-0.17, 2.14, -0.90, 2.23, 1.63, 7.15, repro,
2009-06-22,0.20, 0.25, -6.10, 2.15, 1.55, 6.93, repro,
2009-06-23,1.57, 0.33, 0.98, 2.17, 1.56, 7.00, repro,
2009-06-24,-1.93, -1.13, -6.29, 2.17, 1.56, 6.98, repro,
2009-06-25,-1.74, -0.42, -9.33, 2.18, 1.57, 7.03, repro,
2009-06-26,1.06, -1.24, -11.25, 2.20, 1.60, 7.15, repro,
2009-06-27,-0.86, 2.23, -6.76, 2.28, 1.70, 7.41, repro,
2009-06-28,2.33, 2.28, -3.09, 2.19, 1.60, 7.12, repro,
2009-06-29,-0.20, -0.08, -4.32, 2.23, 1.63, 7.33, repro,
2009-06-30,-0.53, -0.45, -1.63, 2.19, 1.59, 7.15, repro,
2009-07-01,1.02, 1.23, -0.63, 2.18, 1.60, 7.13, repro,
2009-07-02,1.75, 2.38, -6.57, 2.17, 1.57, 7.01, repro,
2009-07-03,1.53, 1.40, 1.60, 2.22, 1.62, 7.22, repro,
2009-07-04,0.29, 2.64, -4.58, 2.21, 1.64, 7.18, repro,
2009-07-05,0.91, 2.43, 0.52, 2.36, 1.79, 7.91, repro,
2009-07-06,3.55, -0.23, -11.09, 2.17, 1.58, 7.04, repro,
2009-07-07,0.35, -3.32, 4.50, 2.14, 1.56, 6.90, repro,
2009-07-08,1.76, 1.65, -0.30, 2.31, 1.67, 7.41, repro,
2009-07-09,1.58, 1.57, -0.95, 2.15, 1.57, 7.00, repro,
2009-07-10,1.23, 2.57, -4.41, 2.17, 1.58, 7.03, repro,
2009-07-11,1.00, -0.67, 1.48, 2.16, 1.57, 6.99, repro,
2009-07-12,0.38, 0.40, -13.31, 2.25, 1.69, 7.32, repro,
2009-07-13,-2.26, -0.54, -4.06, 2.15, 1.56, 6.95, repro,
2009-07-14,-0.68, 1.50, 3.78, 2.21, 1.63, 7.13, repro,
2009-07-15,0.84, 0.40, -5.27, 2.15, 1.57, 6.98, repro,
2009-07-16,0.33, -0.47, -5.03, 2.16, 1.57, 6.99, repro,
2009-07-17,-1.39, 2.94, 4.23, 2.16, 1.58, 7.00, repro,
2009-07-18,-0.99, 2.34, -3.76, 2.15, 1.57, 6.95, repro,
2009-07-19,0.44, -2.06, -6.05, 2.22, 1.64, 7.26, repro,
2009-07-20,0.56, 0.62, -1.26, 2.17, 1.58, 7.02, repro,
2009-07-21,0.32, 2.12, 3.68, 2.18, 1.58, 7.02, repro,
2009-07-22,0.18, 2.13, 3.12, 2.16, 1.58, 7.00, repro,
2009-07-23,0.17, 1.35, 6.56, 2.15, 1.57, 6.95, repro,
2009-07-24,-1.17, -2.20, -11.40, 2.43, 1.95, 8.39, repro,
2009-07-25,0.35, -3.42, -10.62, 2.21, 1.61, 7.20, repro,
2009-07-26,4.57, -0.77, 1.62, 2.26, 1.66, 7.42, repro,
2009-07-27,-3.22, 0.48, -12.59, 2.19, 1.58, 7.05, repro,
2009-07-28,0.49, 1.12, 2.22, 2.16, 1.57, 6.95, repro,
2009-07-29,0.23, 1.45, -0.78, 2.15, 1.57, 6.94, repro,
2009-07-30,0.08, 2.22, 2.36, 2.23, 1.60, 7.11, repro,
2009-07-31,0.61, -0.06, 1.51, 2.19, 1.59, 7.05, repro,
2009-08-01,0.44, 1.37, 3.80, 2.19, 1.59, 7.06, repro,
2009-08-02,-0.09, 2.03, -0.81, 2.19, 1.59, 7.05, repro,
2009-08-03,-0.17, 0.89, 5.47, 2.17, 1.58, 7.01, repro,
2009-08-04,2.21, 0.07, -8.00, 2.21, 1.62, 7.15, repro,
2009-08-05,1.45, 1.22, -5.36, 2.23, 1.62, 7.22, repro,
2009-08-06,-0.11, 1.87, -2.73, 2.21, 1.59, 7.08, repro,
2009-08-07,1.54, 3.03, 12.09, 2.73, 2.02, 8.93, repro,
2009-08-08,0.71, 1.14, -3.10, 2.18, 1.58, 7.01, repro,
2009-08-09,0.93, 1.99, -1.97, 2.17, 1.58, 6.95, repro,